[[{"header":{"parameterUnit":"m.s-1","parameterCategory":1,"la1":30.2991,"la2":30.254,"lo1":-89.0895,"lo2":-89.0444,"dy":0.0017,"dx":0.0017,"nx":28,"ny":28,"refTime":"2023-11-15T03:00:00:Z","depth":0,"parameterNumber":2,"parameterNumberName":"U-component_of_WINDS"},"data":[0,0,0,0,0,0,0,0,0,0,0,0,0,0,0,0,0,0,0,0,0,0,0,0,0,0,0,0,0,0,0,0,0,0,0,0,0,0,0,0,0,0,0,0,0,0,0,0,0,0,0,0,0,0,0,0,0,0,-5.5222,-5.5223,0,-5.5282,-5.5283,-5.5284,-5.5178,-5.5174,-5.5171,-5.5167,-5.5231,-5.5236,-5.5241,0,0,0,0,0,0,0,0,0,0,0,0,0,-5.5017,-5.5021,-5.5222,-5.5223,-5.5224,-5.5282,-5.5283,-5.5284,-5.5178,-5.5174,-5.517,-5.5166,-5.523,-5.5235,-5.5241,0,0,0,0,0,0,0,0,0,0,0,0,0,-5.5094,-5.5022,-5.5222,-5.5178,-5.5175,-5.5282,-5.5283,-5.5284,-5.5179,-5.5174,-5.5169,-5.5164,-5.5228,-5.5235,-5.5242,-5.5396,0,0,-5.5265,-5.5269,0,0,0,0,0,0,0,0,-5.509,-5.5102,-5.5184,-5.5181,-5.5178,-5.5217,-5.5234,-5.5322,-5.5181,-5.5178,-5.5167,-5.5161,-5.5231,-5.5238,-5.5261,-5.5399,-5.5402,-5.5266,-5.5271,-5.5274,-5.5276,0,0,0,0,0,0,0,-5.5085,-5.5099,-5.5246,-5.5185,-5.5181,-5.5155,-5.5161,-5.525,-5.5234,-5.5178,-5.517,-5.5178,-5.5228,-5.5254,-5.5262,-5.5403,-5.5266,-5.5273,-5.5277,-5.528,-5.5669,-5.5675,0,0,0,0,0,0,-5.5085,-5.5095,-5.5244,-5.5248,-5.512,-5.5164,-5.5169,-5.521,-5.5232,-5.5231,-5.5183,-5.5173,-5.5244,-5.5253,-5.5264,-5.5445,-5.5274,-5.5281,-5.5285,-5.5664,-5.5671,-5.5677,0,0,0,0,0,0,-5.5081,-5.5099,-5.5242,-5.5169,-5.5186,-5.5173,-5.5219,-5.5214,-5.5239,-5.5236,-5.5233,-5.5212,-5.524,-5.5253,-5.5364,-5.5446,-5.5284,-5.5291,-5.5657,-5.5666,-5.5674,-5.581,0,0,0,0,0,0,-5.5075,-5.5098,-5.5157,-5.5172,-5.519,-5.5341,-5.5224,-5.5219,-5.5253,-5.524,-5.5263,-5.5262,-5.5237,-5.5353,-5.5371,-5.5453,-5.5297,-5.5649,-5.5661,-5.5671,-5.5798,-5.5822,-5.5843,0,0,0,0,0,-5.5068,-5.5193,-5.516,-5.5179,-5.5262,-5.5346,-5.5356,-5.5325,-5.526,-5.5318,-5.5316,-5.5261,-5.5434,-5.5365,-5.5385,-5.5471,-5.5644,-5.5658,-5.567,-5.5788,-5.5817,-5.5842,0,0,0,0,0,0,-5.5189,-5.5194,-5.5158,-5.5291,-5.5319,-5.5328,-5.5401,-5.5357,-5.5404,-5.5391,-5.535,-5.5356,-5.5475,-5.5483,-5.5407,-5.562,-5.5528,-5.5546,-5.5611,-5.5639,-5.5661,-5.5657,-5.5303,0,0,0,0,0,-5.5231,-5.5298,-5.5299,-5.5417,-5.5432,-5.5415,-5.545,-5.5422,-5.545,-5.5461,-5.5467,-5.5496,-5.5557,-5.5598,-5.5653,-5.5798,-5.5801,-5.5866,-5.5889,-5.5907,-5.5924,-5.6,-5.6029,-5.572,-5.572,-5.572,0,0,-5.5319,-5.533,-5.5375,-5.5441,-5.5459,-5.553,-5.5425,-5.5504,-5.5557,-5.5473,-5.5578,-5.5584,-5.5613,-5.5742,-5.5798,-5.5752,-5.6009,-5.5924,-5.5939,-5.5945,-5.6017,-5.6046,-5.6072,-5.5729,-5.5727,-5.5726,0,0,-5.5516,-5.553,-5.563,-5.565,-5.5678,-5.5665,-5.5689,-5.5705,-5.5705,-5.5809,-5.5748,-5.5809,-5.5915,-5.5938,-5.5964,-5.6168,-5.6119,-5.6187,-5.6305,-5.6381,-5.6405,-5.6426,-5.65,-5.6527,-5.6203,-5.6203,-5.6204,0,-5.5622,-5.5725,-5.5687,-5.577,-5.5801,-5.5727,-5.5828,-5.5849,-5.5895,-5.5918,-5.5865,-5.5995,-5.601,-5.6143,-5.6193,-5.6216,-5.6242,-5.6185,-5.6404,-5.6426,-5.6445,-5.6514,-5.6542,-5.6211,-5.6211,-5.621,-5.6209,0,-5.5855,-5.5927,-5.6004,-5.6049,-5.6088,-5.618,-5.6156,-5.62,-5.6169,-5.6161,-5.6268,-5.6283,-5.634,-5.6369,-5.634,-5.6498,-5.6468,-5.6411,-5.6318,-5.6483,-5.6548,-5.6574,-5.6223,-5.622,-5.6218,-5.6216,0,0,-5.6132,-5.6152,-5.6181,-5.6201,-5.6226,-5.6282,-5.6369,-5.6424,-5.6463,-5.6497,-5.657,-5.666,-5.6606,-5.6636,-5.6608,-5.6674,-5.6835,-5.6608,-5.6608,-5.6651,-5.7011,-5.7055,-5.7086,-5.6802,-5.6807,-5.6811,-5.7008,0,-5.6327,-5.6479,-5.6446,-5.6595,-5.6661,-5.6591,-5.6668,-5.6692,-5.6687,-5.6743,-5.6737,-5.6802,-5.6726,-5.6743,-5.6805,-5.6803,-5.6907,-5.6788,-5.6871,-5.6874,-5.6867,-5.712,-5.7167,-5.7353,-5.7033,-5.7038,-5.7041,0,-5.6577,-5.6619,-5.6774,-5.6788,-5.6814,-5.6884,-5.6931,-5.6985,-5.7011,-5.7002,-5.7035,-5.6994,-5.7081,-5.6986,-5.7106,-5.7025,-5.7057,-5.706,-5.7067,-5.7075,-5.6969,-5.7136,-5.7411,-5.744,-5.708,-5.7077,-5.7074,0,-5.6764,-5.686,-5.6965,-5.6983,-5.7001,-5.7052,-5.7062,-5.7082,-5.7116,-5.7158,-5.718,-5.7231,-5.726,-5.73,-5.7275,-5.7207,-5.7399,-5.7302,-5.7396,-5.7397,-5.7441,-5.7439,-5.7727,-5.7459,-5.7459,-5.7458,-5.7458,0,-5.6988,-5.7086,-5.7049,-5.7114,-5.7222,-5.7182,-5.729,-5.7292,-5.731,-5.7374,-5.7316,-5.7378,-5.7339,-5.7398,-5.7378,-5.7481,-5.7494,-5.749,-5.7484,-5.7496,-5.7497,-5.7518,-5.7505,-5.7466,-5.7464,-5.7463,-5.7462,0,-5.7217,-5.7196,-5.7306,-5.7313,-5.7317,-5.7396,-5.7403,-5.7463,-5.7453,-5.7535,-5.7552,-5.7536,-5.7602,-5.758,-5.7651,-5.7637,-5.7768,-5.7745,-5.776,-5.7754,-5.785,-5.7842,-5.8163,-5.8203,-5.7909,-5.7911,-5.7914,0,-5.7361,-5.7435,-5.745,-5.7488,-5.7502,-5.7565,-5.7599,-5.7563,-5.7601,-5.7635,-5.7692,-5.7752,-5.7798,-5.7907,-5.7902,-5.7956,-5.7934,-5.8043,-5.7942,-5.7952,-5.7937,-5.7934,-5.7941,-5.8064,-5.8067,-5.807,-5.8072,0,-5.7621,-5.7606,-5.7658,-5.7707,-5.775,-5.7786,-5.7818,-5.7853,-5.7817,-5.7864,-5.793,-5.7966,-5.8037,-5.8098,-5.8146,-5.8156,-5.811,-5.8103,-5.8128,-5.8142,-5.8148,-5.8147,-5.7816,-5.8097,-5.8094,-5.8093,-5.8091,-5.809,-5.7813,-5.7875,-5.7894,-5.7954,-5.7973,-5.8004,-5.8061,-5.8057,-5.8111,-5.8166,-5.814,-5.8217,-5.8239,-5.8298,-5.8315,-5.8375,-5.8333,-5.8369,-5.8378,-5.8388,-5.8401,-5.8138,-5.8383,-5.8383,-5.8382,-5.8381,-5.8381,0,-5.807,-5.8078,-5.8134,-5.8179,-5.8226,-5.8175,-5.8207,-5.825,-5.8317,-5.8341,-5.8388,-5.8463,-5.8522,-5.8521,-5.8575,-5.8623,-5.8603,-5.8638,-5.8635,-5.8639,-5.8435,-5.8408,-5.8654,-5.8654,-5.8654,-5.8654,-5.8654,-5.8654,-5.8209,-5.8312,-5.8299,-5.841,-5.8418,-5.8492,-5.8514,-5.8542,-5.8561,-5.8647,-5.8695,-5.8693,-5.8708,-5.8762,-5.8814,-5.8812,-5.8835,-5.888,-5.887,-5.868,-5.8653,-5.8627,-5.8602,-5.8885,-5.8885,-5.9069,-5.9071,-5.9072]},{"header":{"parameterUnit":"m.s-1","parameterCategory":1,"la1":30.2991,"la2":30.254,"lo1":-89.0895,"lo2":-89.0444,"dy":0.0017,"dx":0.0017,"nx":28,"ny":28,"refTime":"2023-11-15T03:00:00:Z","depth":0,"parameterNumber":3,"parameterNumberName":"V-component_of_WINDS"},"data":[0,0,0,0,0,0,0,0,0,0,0,0,0,0,0,0,0,0,0,0,0,0,0,0,0,0,0,0,0,0,0,0,0,0,0,0,0,0,0,0,0,0,0,0,0,0,0,0,0,0,0,0,0,0,0,0,0,0,-6.7889,-6.789,0,-6.7946,-6.7947,-6.7947,-6.7828,-6.7825,-6.7821,-6.7817,-6.7871,-6.7876,-6.7881,0,0,0,0,0,0,0,0,0,0,0,0,0,-6.7673,-6.7678,-6.7889,-6.789,-6.7891,-6.7946,-6.7947,-6.7947,-6.7829,-6.7824,-6.782,-6.7815,-6.787,-6.7876,-6.7882,0,0,0,0,0,0,0,0,0,0,0,0,0,-6.7752,-6.7679,-6.7889,-6.7838,-6.7834,-6.7946,-6.7947,-6.7948,-6.783,-6.7824,-6.7819,-6.7813,-6.7868,-6.7875,-6.7882,-6.8044,0,0,-6.7906,-6.7909,0,0,0,0,0,0,0,0,-6.7748,-6.776,-6.7845,-6.7842,-6.7838,-6.7874,-6.789,-6.798,-6.7832,-6.7832,-6.7817,-6.781,-6.7877,-6.7883,-6.7906,-6.8047,-6.8049,-6.7906,-6.7911,-6.7914,-6.7916,0,0,0,0,0,0,0,-6.7742,-6.7757,-6.7911,-6.7846,-6.7842,-6.7811,-6.7816,-6.7907,-6.7886,-6.7831,-6.7823,-6.7831,-6.7874,-6.7899,-6.7907,-6.805,-6.7906,-6.7913,-6.7917,-6.792,-6.8325,-6.8331,0,0,0,0,0,0,-6.7744,-6.7753,-6.7909,-6.7913,-6.7778,-6.782,-6.7825,-6.7868,-6.7884,-6.7881,-6.7836,-6.7825,-6.7889,-6.7898,-6.7908,-6.8099,-6.7914,-6.7921,-6.7925,-6.8319,-6.8327,-6.8333,0,0,0,0,0,0,-6.774,-6.7759,-6.7907,-6.7831,-6.7847,-6.7829,-6.7879,-6.7872,-6.7898,-6.7888,-6.7883,-6.7867,-6.7885,-6.7898,-6.8011,-6.8099,-6.7924,-6.7931,-6.8312,-6.8321,-6.833,-6.8481,0,0,0,0,0,0,-6.7734,-6.7758,-6.7821,-6.7833,-6.7852,-6.8012,-6.7884,-6.7878,-6.7912,-6.7899,-6.7916,-6.7913,-6.7882,-6.8001,-6.8019,-6.8106,-6.7937,-6.8304,-6.8316,-6.8327,-6.8468,-6.8495,-6.8517,0,0,0,0,0,-6.7727,-6.7861,-6.7825,-6.7844,-6.793,-6.8017,-6.8027,-6.799,-6.792,-6.7982,-6.7975,-6.7912,-6.8086,-6.8014,-6.8033,-6.8124,-6.8298,-6.8313,-6.8326,-6.8458,-6.849,-6.8517,0,0,0,0,0,0,-6.7858,-6.7861,-6.7822,-6.7964,-6.7991,-6.7997,-6.8074,-6.8025,-6.8072,-6.8057,-6.8007,-6.8012,-6.8136,-6.814,-6.806,-6.8281,-6.818,-6.8199,-6.8273,-6.8304,-6.8327,-6.8324,-6.7943,0,0,0,0,0,-6.7903,-6.7975,-6.7973,-6.8099,-6.8115,-6.8093,-6.8129,-6.8098,-6.8123,-6.8134,-6.8135,-6.8162,-6.8222,-6.8263,-6.8318,-6.8468,-6.847,-6.854,-6.8564,-6.8584,-6.8601,-6.868,-6.8711,-6.8379,-6.8379,-6.8379,0,0,-6.7998,-6.8009,-6.8057,-6.8126,-6.8143,-6.8217,-6.8103,-6.8186,-6.824,-6.8146,-6.8254,-6.8256,-6.8282,-6.8415,-6.8473,-6.8423,-6.8693,-6.8602,-6.8618,-6.8624,-6.8698,-6.8729,-6.8757,-6.8389,-6.8387,-6.8386,0,0,-6.8208,-6.8224,-6.833,-6.835,-6.8379,-6.8363,-6.8388,-6.8402,-6.84,-6.8508,-6.8439,-6.8501,-6.8606,-6.8627,-6.8652,-6.8869,-6.8813,-6.8888,-6.9016,-6.9094,-6.912,-6.9143,-6.922,-6.9249,-6.8905,-6.8905,-6.8906,0,-6.8322,-6.8432,-6.839,-6.8479,-6.851,-6.843,-6.8536,-6.8557,-6.8601,-6.8624,-6.8567,-6.8697,-6.8709,-6.8845,-6.8899,-6.8921,-6.8948,-6.8887,-6.912,-6.9142,-6.9163,-6.9236,-6.9266,-6.8914,-6.8913,-6.8912,-6.8912,0,-6.857,-6.8648,-6.873,-6.8777,-6.8817,-6.8914,-6.8885,-6.8931,-6.8896,-6.8886,-6.8996,-6.9007,-6.9063,-6.9092,-6.9058,-6.9224,-6.9192,-6.9128,-6.9026,-6.9204,-6.9272,-6.93,-6.8927,-6.8924,-6.8921,-6.8919,0,0,-6.8866,-6.8888,-6.8919,-6.8939,-6.8964,-6.9022,-6.9114,-6.917,-6.921,-6.9243,-6.9318,-6.9409,-6.935,-6.9378,-6.9345,-6.9414,-6.9585,-6.9341,-6.9341,-6.9386,-6.9768,-6.9816,-6.985,-6.9548,-6.9553,-6.9557,-6.9766,0,-6.9074,-6.9235,-6.92,-6.9357,-6.9428,-6.9352,-6.9432,-6.9455,-6.9448,-6.9505,-6.9495,-6.9561,-6.9478,-6.9494,-6.9558,-6.9551,-6.9661,-6.9535,-6.9617,-6.962,-6.9614,-6.9885,-6.9937,-7.0133,-6.9792,-6.9797,-6.98,0,-6.9339,-6.9384,-6.955,-6.9563,-6.9591,-6.9664,-6.9712,-6.9768,-6.9792,-6.9781,-6.9813,-6.9767,-6.9856,-6.9753,-6.9875,-6.9791,-6.9821,-6.9823,-6.9829,-6.9836,-6.9722,-6.9899,-7.0195,-7.0225,-6.9841,-6.9838,-6.9835,0,-6.9538,-6.9639,-6.9751,-6.9771,-6.9789,-6.9842,-6.9852,-6.987,-6.9906,-6.9947,-6.9969,-7.002,-7.0048,-7.0087,-7.0055,-6.9983,-7.0183,-7.0077,-7.0176,-7.0177,-7.0222,-7.0219,-7.0527,-7.0241,-7.0241,-7.024,-7.024,0,-6.9775,-6.988,-6.9841,-6.991,-7.0024,-6.9981,-7.0095,-7.0095,-7.0112,-7.0178,-7.0114,-7.0178,-7.0132,-7.0191,-7.0166,-7.0271,-7.0284,-7.0277,-7.0269,-7.0283,-7.0284,-7.0303,-7.0289,-7.0248,-7.0246,-7.0245,-7.0243,0,-7.0017,-6.9996,-7.0113,-7.0121,-7.0125,-7.0209,-7.0215,-7.0278,-7.0265,-7.035,-7.0367,-7.0348,-7.0414,-7.0386,-7.0455,-7.0438,-7.0573,-7.0546,-7.0566,-7.0559,-7.066,-7.0651,-7.099,-7.1033,-7.072,-7.0723,-7.0725,0,-7.0171,-7.0249,-7.0266,-7.0307,-7.0321,-7.0388,-7.0424,-7.0384,-7.0424,-7.0457,-7.0516,-7.0577,-7.0623,-7.0732,-7.0723,-7.0775,-7.075,-7.0865,-7.0757,-7.0769,-7.0752,-7.0748,-7.0755,-7.0887,-7.0891,-7.0894,-7.0896,0,-7.0444,-7.043,-7.0486,-7.0538,-7.0583,-7.0622,-7.0655,-7.0691,-7.0653,-7.0701,-7.0768,-7.0805,-7.0876,-7.0936,-7.0983,-7.099,-7.0937,-7.093,-7.0956,-7.0971,-7.0979,-7.0977,-7.0625,-7.0923,-7.092,-7.0918,-7.0917,-7.0916,-7.0647,-7.0713,-7.0735,-7.0799,-7.082,-7.0852,-7.0912,-7.0907,-7.0963,-7.1019,-7.0991,-7.107,-7.109,-7.1147,-7.1162,-7.1222,-7.1176,-7.1213,-7.1223,-7.1233,-7.1246,-7.097,-7.123,-7.1229,-7.1228,-7.1227,-7.1227,0,-7.0917,-7.0928,-7.0987,-7.1036,-7.1086,-7.1033,-7.1066,-7.1111,-7.1181,-7.1206,-7.1253,-7.133,-7.1388,-7.1384,-7.1437,-7.1486,-7.1463,-7.1501,-7.1497,-7.15,-7.1284,-7.1257,-7.1519,-7.1519,-7.1519,-7.1519,-7.1519,-7.1519,-7.1064,-7.1174,-7.1162,-7.128,-7.1289,-7.1367,-7.139,-7.1419,-7.1438,-7.1528,-7.1577,-7.1574,-7.1586,-7.164,-7.169,-7.1687,-7.171,-7.1758,-7.1746,-7.1544,-7.1515,-7.1488,-7.1462,-7.1763,-7.1763,-7.1957,-7.1959,-7.196]}]]